[[{"header":{"parameterUnit":"m.s-1","parameterCategory":1,"la1":30.2992,"la2":30.254,"lo1":-89.0895,"lo2":-89.0443,"dy":0.0025,"dx":0.0025,"nx":19,"ny":19,"refTime":"2026-05-16T21:00:00:Z","depth":0,"parameterNumber":2,"parameterNumberName":"U-component_of_WINDS"},"data":[0,0,0,-2.9206,-2.9206,-2.918,-2.918,-2.916,-2.916,0,0,0,0,0,0,0,0,0,0,0,-2.9223,-2.9223,-2.9207,-2.9206,-2.918,-2.918,-2.916,-2.916,0,0,0,0,0,0,0,0,0,0,0,-2.9223,-2.9223,-2.9223,-2.9206,-2.918,-2.918,-2.916,-2.9175,0,0,0,0,0,0,0,0,0,0,-2.9198,-2.9221,-2.9223,-2.9223,-2.9206,-2.918,-2.918,-2.9175,-2.9174,-2.9178,0,-2.9184,0,-2.9172,-2.916,-2.916,0,0,0,-2.92,-2.9223,-2.9208,-2.9223,-2.9206,-2.918,-2.919,-2.9174,-2.9173,-2.9176,-2.9183,-2.9182,-2.9171,-2.916,-2.916,-2.9204,-2.9205,0,0,-2.9201,-2.9223,-2.9209,-2.9207,-2.9212,-2.9191,-2.9189,-2.9173,-2.9182,-2.9183,-2.9182,-2.9171,-2.9159,-2.9159,-2.9204,-2.9204,0,0,0,-2.921,-2.9224,-2.9209,-2.9209,-2.9203,-2.919,-2.9188,-2.9183,-2.9177,-2.9181,-2.9171,-2.9159,-2.9159,-2.9203,-2.9204,-2.9249,0,0,0,-2.921,-2.9229,-2.921,-2.9223,-2.9203,-2.9193,-2.9199,-2.9178,-2.9175,-2.9171,-2.9159,-2.9159,-2.9203,-2.9204,-2.9247,-2.9266,0,0,0,-2.9222,-2.923,-2.9229,-2.9224,-2.9214,-2.9192,-2.9185,-2.9177,-2.9169,-2.916,-2.9159,-2.9202,-2.9203,-2.9244,-2.9263,-2.9284,0,0,0,-2.924,-2.927,-2.923,-2.926,-2.9214,-2.9221,-2.9184,-2.9189,-2.9186,-2.9159,-2.9203,-2.9204,-2.9244,-2.926,-2.9282,-2.9304,-2.9316,0,0,-2.929,-2.9277,-2.9292,-2.9256,-2.9275,-2.9223,-2.9249,-2.9226,-2.9206,-2.9206,-2.9207,-2.9247,-2.9262,-2.9283,-2.9378,-2.9387,0,0,0,-2.9315,-2.9327,-2.9327,-2.9326,-2.9309,-2.9297,-2.9268,-2.926,-2.9259,-2.9211,-2.9261,-2.9269,-2.928,-2.929,-2.9298,-2.9306,-2.921,-2.921,-2.921,-2.9416,-2.9388,-2.9412,-2.9382,-2.9381,-2.9351,-2.9348,-2.9331,-2.9304,-2.9317,-2.9316,-2.9376,-2.9389,-2.9395,-2.9404,-2.9327,-2.9327,-2.9327,-2.9327,-2.9485,-2.9496,-2.946,-2.947,-2.9441,-2.9449,-2.9422,-2.9403,-2.9406,-2.9375,-2.9383,-2.935,-2.9406,-2.9412,-2.933,-2.933,-2.933,-2.9329,-2.9329,-2.9546,-2.9547,-2.9536,-2.9531,-2.9531,-2.95,-2.9504,-2.9478,-2.9454,-2.9462,-2.9458,-2.9457,-2.9452,-2.9463,-2.9463,-2.9463,-2.9463,-2.9463,-2.9464,-2.9613,-2.96,-2.9607,-2.9593,-2.9589,-2.958,-2.9551,-2.9546,-2.9534,-2.9514,-2.9514,-2.9485,-2.9417,-2.94,-2.9467,-2.9466,-2.9466,-2.9465,-2.9465,-2.9691,-2.9669,-2.9681,-2.9676,-2.9657,-2.9658,-2.9625,-2.9618,-2.961,-2.9613,-2.9583,-2.9538,-2.9522,-2.9516,-2.9501,-2.959,-2.959,-2.959,-2.959,-2.9742,-2.9732,-2.9737,-2.9732,-2.9724,-2.9696,-2.9709,-2.9688,-2.9662,-2.9656,-2.9639,-2.9619,-2.9613,-2.9601,-2.9592,-2.9578,-2.9684,-2.9684,-2.9684,-2.9788,-2.9776,-2.9792,-2.9767,-2.975,-2.9737,-2.9749,-2.9744,-2.9711,-2.9688,-2.965,-2.9646,-2.9612,-2.9602,-2.9576,-2.9564,-2.9537,0,0]},{"header":{"parameterUnit":"m.s-1","parameterCategory":1,"la1":30.2992,"la2":30.254,"lo1":-89.0895,"lo2":-89.0443,"dy":0.0025,"dx":0.0025,"nx":19,"ny":19,"refTime":"2026-05-16T21:00:00:Z","depth":0,"parameterNumber":3,"parameterNumberName":"V-component_of_WINDS"},"data":[0,0,0,3.945,3.9448,3.9391,3.9391,3.9316,3.9315,0,0,0,0,0,0,0,0,0,0,0,3.9468,3.9468,3.945,3.9448,3.9391,3.9391,3.9316,3.9315,0,0,0,0,0,0,0,0,0,0,0,3.9469,3.9468,3.9468,3.9448,3.9391,3.9391,3.9316,3.9359,0,0,0,0,0,0,0,0,0,0,3.9415,3.9435,3.9468,3.9468,3.9448,3.9391,3.9391,3.9361,3.9356,3.9342,0,3.9333,0,3.9323,3.931,3.931,0,0,0,3.9446,3.9439,3.9422,3.9468,3.9447,3.9391,3.9416,3.9359,3.9353,3.9336,3.9332,3.9329,3.9322,3.931,3.931,3.9244,3.9243,0,0,3.9449,3.9458,3.9426,3.9419,3.9431,3.9418,3.9414,3.9355,3.935,3.9331,3.9327,3.9321,3.9309,3.9309,3.9244,3.9243,0,0,0,3.946,3.9461,3.9445,3.9422,3.9412,3.9416,3.9412,3.9352,3.9347,3.9326,3.932,3.9309,3.9308,3.9244,3.9244,3.9245,0,0,0,3.9462,3.9467,3.9447,3.9452,3.9413,3.9382,3.9411,3.9351,3.9344,3.932,3.9309,3.9307,3.9244,3.9244,3.9245,3.9243,0,0,0,3.9471,3.9468,3.9461,3.9452,3.9429,3.9383,3.9374,3.9349,3.934,3.931,3.9307,3.9244,3.9244,3.9246,3.9244,3.923,0,0,0,3.9484,3.946,3.9461,3.9432,3.9429,3.9385,3.9374,3.934,3.9314,3.9309,3.9244,3.9244,3.9246,3.9244,3.923,3.922,3.9216,0,0,3.9459,3.9457,3.944,3.9439,3.9398,3.9393,3.9351,3.9317,3.9303,3.9263,3.9262,3.9245,3.9244,3.923,3.9194,3.9192,0,0,0,3.9435,3.9423,3.941,3.9388,3.9364,3.9342,3.9314,3.9302,3.9269,3.9286,3.9236,3.9235,3.9226,3.922,3.9218,3.921,3.9242,3.9242,3.9242,3.9412,3.94,3.937,3.9352,3.933,3.9303,3.9284,3.9262,3.9253,3.9241,3.9229,3.921,3.9204,3.9202,3.9194,3.9223,3.9223,3.9223,3.9223,3.9375,3.9355,3.9348,3.9317,3.9303,3.9275,3.9248,3.9243,3.9214,3.9217,3.9209,3.9214,3.92,3.9192,3.9223,3.9223,3.9223,3.9223,3.9223,3.9358,3.9347,3.9335,3.9304,3.928,3.9261,3.9235,3.9222,3.921,3.9202,3.9188,3.9188,3.9186,3.9196,3.9196,3.9196,3.9196,3.9196,3.9196,3.9346,3.9333,3.9314,3.9288,3.9274,3.9253,3.9226,3.921,3.9189,3.9182,3.9182,3.9174,3.9201,3.9209,3.9195,3.9195,3.9195,3.9195,3.9195,3.9313,3.9319,3.929,3.9276,3.9246,3.9224,3.9209,3.9178,3.9163,3.9151,3.9145,3.9168,3.9164,3.9165,3.9171,3.9148,3.9148,3.9148,3.9148,3.9299,3.9297,3.9266,3.9244,3.9221,3.9206,3.9172,3.9151,3.913,3.912,3.9122,3.9128,3.9131,3.9125,3.9128,3.9133,3.9101,3.9101,3.9101,3.9278,3.9274,3.9248,3.9232,3.9208,3.9187,3.9154,3.9128,3.9105,3.9099,3.9112,3.9114,3.9124,3.9129,3.9122,3.9126,3.9135,0,0]}]]